QPF
0.00 0.00 0.00 0.00 0.00 0.00 0.00 0.00 0.00 0.00 0.00 0.00 0.00 0.00 0.00 0.00 0.00 0.00 0.00 0.00 0.00 0.00 0.00 0.01 0.03 0.04 0.03 0.04 0.03 0.03 0.02 0.02 0.02 0.03 0.03 0.03 0.02 0.03 0.03 0.02 0.03 0.03 0.04 0.04 0.05 0.05 0.03 0.02 0.01
0.00 0.00 0.00 0.00 0.00 0.00 0.00 0.00 0.00 0.00 0.00 0.00 0.00 0.00 0.00 0.00 0.00 0.00 0.00 0.00 0.00 0.00 0.01 0.02 0.03 0.04 0.03 0.03 0.02 0.02 0.03 0.02 0.02 0.02 0.03 0.03 0.03 0.02 0.02 0.02 0.02 0.03 0.04 0.05 0.04 0.03 0.02 0.01 0.00
0.00 0.00 0.00 0.00 0.00 0.00 0.00 0.00 0.00 0.00 0.00 0.00 0.00 0.00 0.00 0.00 0.00 0.00 0.00 0.00 0.00 0.00 0.01 0.02 0.03 0.04 0.04 0.03 0.02 0.01 0.02 0.02 0.02 0.03 0.03 0.03 0.03 0.03 0.03 0.03 0.02 0.02 0.02 0.02 0.02 0.02 0.01 0.01 0.00
0.00 0.00 0.00 0.00 0.00 0.00 0.00 0.00 0.00 0.00 0.00 0.00 0.00 0.00 0.00 0.00 0.00 0.00 0.00 0.01 0.01 0.01 0.01 0.02 0.03 0.05 0.05 0.04 0.03 0.03 0.02 0.02 0.02 0.03 0.03 0.03 0.03 0.03 0.03 0.03 0.02 0.02 0.01 0.01 0.01 0.01 0.00 0.00 0.01
0.00 0.00 0.00 0.00 0.00 0.00 0.00 0.00 0.00 0.00 0.00 0.00 0.00 0.00 0.00 0.00 0.00 0.01 0.01 0.01 0.01 0.01 0.02 0.03 0.04 0.04 0.05 0.06 0.04 0.04 0.03 0.03 0.03 0.03 0.03 0.03 0.03 0.04 0.04 0.03 0.02 0.02 0.02 0.02 0.01 0.01 0.01 0.01 0.00
0.00 0.00 0.00 0.00 0.00 0.00 0.00 0.00 0.00 0.00 0.00 0.00 0.00 0.00 0.00 0.00 0.00 0.01 0.01 0.01 0.01 0.01 0.02 0.03 0.05 0.05 0.05 0.07 0.05 0.04 0.03 0.03 0.03 0.03 0.03 0.03 0.05 0.06 0.06 0.04 0.02 0.02 0.01 0.01 0.01 0.02 0.03 0.02 0.01
0.00 0.00 0.00 0.00 0.00 0.00 0.00 0.00 0.00 0.00 0.00 0.00 0.00 0.00 0.00 0.00 0.00 0.01 0.01 0.01 0.01 0.01 0.02 0.02 0.04 0.05 0.06 0.07 0.07 0.05 0.04 0.03 0.02 0.02 0.02 0.02 0.03 0.04 0.04 0.04 0.03 0.03 0.02 0.02 0.02 0.01 0.01 0.01 0.01
0.00 0.00 0.00 0.00 0.00 0.00 0.00 0.00 0.00 0.00 0.00 0.00 0.00 0.00 0.00 0.00 0.00 0.01 0.01 0.02 0.01 0.01 0.01 0.02 0.03 0.04 0.06 0.06 0.07 0.06 0.05 0.04 0.03 0.02 0.02 0.02 0.03 0.04 0.04 0.03 0.03 0.03 0.03 0.03 0.03 0.02 0.01 0.00 0.00
0.00 0.00 0.00 0.00 0.00 0.00 0.00 0.00 0.00 0.00 0.00 0.00 0.00 0.00 0.00 0.00 0.00 0.01 0.01 0.02 0.01 0.01 0.01 0.01 0.01 0.02 0.05 0.07 0.06 0.06 0.06 0.05 0.04 0.03 0.03 0.03 0.02 0.03 0.05 0.04 0.05 0.05 0.03 0.03 0.03 0.02 0.01 0.00 0.00
0.00 0.00 0.00 0.00 0.00 0.00 0.00 0.00 0.00 0.00 0.00 0.00 0.00 0.00 0.00 0.00 0.01 0.01 0.01 0.01 0.01 0.01 0.01 0.02 0.02 0.02 0.03 0.05 0.08 0.08 0.07 0.06 0.04 0.03 0.03 0.03 0.03 0.03 0.04 0.04 0.04 0.04 0.03 0.03 0.02 0.02 0.01 0.00 0.00
0.00 0.00 0.00 0.00 0.00 0.00 0.00 0.00 0.00 0.00 0.00 0.00 0.00 0.00 0.00 0.01 0.01 0.01 0.01 0.02 0.02 0.01 0.01 0.02 0.02 0.02 0.02 0.03 0.05 0.08 0.09 0.07 0.05 0.03 0.02 0.03 0.03 0.03 0.03 0.02 0.03 0.03 0.03 0.02 0.01 0.01 0.01 0.00 0.00
0.00 0.00 0.00 0.00 0.00 0.00 0.00 0.01 0.01 0.00 0.00 0.00 0.00 0.00 0.00 0.01 0.01 0.01 0.01 0.01 0.02 0.02 0.02 0.02 0.02 0.02 0.02 0.03 0.04 0.05 0.09 0.10 0.09 0.05 0.03 0.02 0.02 0.02 0.01 0.01 0.02 0.03 0.02 0.01 0.01 0.00 0.00 0.00 0.00
0.00 0.00 0.00 0.00 0.00 0.00 0.00 0.01 0.01 0.01 0.00 0.00 0.00 0.01 0.01 0.00 0.01 0.02 0.02 0.02 0.02 0.03 0.03 0.03 0.03 0.02 0.03 0.04 0.05 0.06 0.07 0.10 0.11 0.09 0.05 0.03 0.02 0.02 0.02 0.02 0.02 0.02 0.01 0.01 0.00 0.00 0.00 0.00 0.00
0.00 0.00 0.00 0.00 0.00 0.00 0.00 0.00 0.01 0.01 0.01 0.00 0.00 0.01 0.01 0.01 0.01 0.02 0.03 0.03 0.03 0.02 0.03 0.04 0.04 0.03 0.03 0.04 0.04 0.05 0.07 0.08 0.11 0.13 0.08 0.04 0.04 0.04 0.05 0.05 0.04 0.02 0.01 0.01 0.01 0.01 0.00 0.00 0.00
0.00 0.00 0.00 0.00 0.00 0.00 0.00 0.01 0.01 0.02 0.02 0.01 0.01 0.01 0.01 0.01 0.01 0.02 0.04 0.03 0.03 0.03 0.03 0.03 0.04 0.04 0.03 0.03 0.04 0.04 0.05 0.05 0.06 0.10 0.08 0.05 0.03 0.04 0.05 0.05 0.04 0.03 0.02 0.01 0.01 0.01 0.01 0.01 0.00
0.01 0.01 0.01 0.00 0.01 0.00 0.00 0.02 0.01 0.02 0.02 0.00 0.01 0.01 0.01 0.02 0.03 0.02 0.02 0.03 0.03 0.03 0.03 0.04 0.04 0.04 0.04 0.04 0.04 0.04 0.04 0.04 0.04 0.05 0.08 0.07 0.04 0.03 0.03 0.04 0.03 0.04 0.03 0.03 0.01 0.01 0.00 0.00 0.00
0.02 0.01 0.01 0.00 0.00 0.00 0.00 0.01 0.01 0.01 0.01 0.00 0.01 0.01 0.01 0.01 0.02 0.03 0.02 0.02 0.02 0.02 0.02 0.03 0.04 0.04 0.04 0.04 0.05 0.04 0.04 0.03 0.04 0.04 0.06 0.07 0.06 0.04 0.02 0.02 0.02 0.02 0.03 0.03 0.02 0.01 0.00 0.00 0.00
0.01 0.01 0.01 0.00 0.00 0.00 0.00 0.00 0.00 0.01 0.02 0.01 0.01 0.01 0.00 0.01 0.02 0.02 0.03 0.02 0.01 0.01 0.01 0.01 0.03 0.04 0.04 0.05 0.06 0.05 0.04 0.03 0.03 0.03 0.05 0.09 0.09 0.07 0.04 0.03 0.02 0.01 0.01 0.01 0.01 0.01 0.00 0.00 0.00
0.00 0.01 0.01 0.01 0.01 0.00 0.00 0.00 0.00 0.01 0.01 0.01 0.01 0.01 0.00 0.00 0.01 0.02 0.02 0.03 0.02 0.01 0.01 0.01 0.01 0.02 0.03 0.03 0.04 0.04 0.04 0.03 0.03 0.03 0.03 0.06 0.09 0.09 0.07 0.05 0.03 0.03 0.02 0.01 0.01 0.01 0.02 0.01 0.02
0.01 0.01 0.00 0.00 0.00 0.00 0.00 0.00 0.00 0.00 0.00 0.01 0.01 0.01 0.01 0.01 0.00 0.00 0.01 0.01 0.01 0.01 0.01 0.01 0.01 0.01 0.02 0.02 0.03 0.03 0.04 0.04 0.04 0.04 0.03 0.04 0.06 0.06 0.06 0.06 0.04 0.04 0.04 0.03 0.02 0.03 0.03 0.02 0.01
0.01 0.01 0.00 0.00 0.00 0.00 0.00 0.00 0.00 0.00 0.00 0.00 0.01 0.01 0.01 0.02 0.01 0.01 0.01 0.00 0.01 0.01 0.01 0.01 0.01 0.01 0.01 0.02 0.02 0.03 0.03 0.04 0.04 0.04 0.04 0.03 0.03 0.04 0.04 0.05 0.04 0.03 0.03 0.02 0.02 0.03 0.03 0.02 0.02
0.01 0.01 0.00 0.00 0.00 0.01 0.01 0.01 0.00 0.00 0.00 0.00 0.00 0.00 0.00 0.01 0.01 0.01 0.01 0.00 0.01 0.01 0.01 0.01 0.01 0.01 0.02 0.02 0.02 0.02 0.03 0.03 0.03 0.04 0.04 0.05 0.05 0.05 0.05 0.05 0.05 0.04 0.03 0.03 0.02 0.02 0.02 0.02 0.02
0.01 0.01 0.01 0.00 0.00 0.01 0.01 0.01 0.01 0.00 0.00 0.00 0.00 0.00 0.00 0.00 0.00 0.01 0.01 0.01 0.01 0.01 0.01 0.02 0.02 0.02 0.02 0.03 0.03 0.03 0.03 0.02 0.02 0.02 0.03 0.05 0.06 0.05 0.05 0.06 0.06 0.04 0.03 0.02 0.02 0.02 0.02 0.02 0.03
0.01 0.01 0.02 0.01 0.01 0.02 0.01 0.01 0.01 0.00 0.00 0.00 0.00 0.00 0.00 0.00 0.00 0.00 0.01 0.02 0.02 0.02 0.02 0.02 0.02 0.03 0.03 0.03 0.03 0.03 0.02 0.02 0.01 0.01 0.02 0.03 0.06 0.07 0.06 0.05 0.05 0.05 0.04 0.03 0.02 0.02 0.01 0.01 0.01
0.02 0.02 0.04 0.05 0.04 0.02 0.01 0.01 0.01 0.00 0.00 0.00 0.00 0.00 0.00 0.00 0.00 0.00 0.01 0.01 0.02 0.02 0.02 0.02 0.03 0.03 0.04 0.04 0.04 0.03 0.02 0.01 0.01 0.01 0.01 0.02 0.03 0.04 0.06 0.07 0.06 0.05 0.05 0.04 0.03 0.02 0.01 0.01 0.01
0.04 0.02 0.03 0.03 0.03 0.01 0.00 0.01 0.01 0.01 0.00 0.00 0.00 0.00 0.00 0.00 0.00 0.00 0.01 0.01 0.01 0.02 0.02 0.02 0.03 0.03 0.04 0.04 0.04 0.04 0.03 0.03 0.01 0.01 0.01 0.01 0.01 0.02 0.04 0.05 0.06 0.06 0.07 0.07 0.06 0.04 0.02 0.01 0.01
0.04 0.03 0.01 0.01 0.01 0.01 0.01 0.01 0.01 0.00 0.00 0.00 0.01 0.00 0.00 0.00 0.00 0.00 0.01 0.01 0.01 0.02 0.02 0.02 0.03 0.03 0.03 0.03 0.03 0.03 0.03 0.03 0.02 0.01 0.01 0.01 0.01 0.01 0.02 0.03 0.04 0.05 0.06 0.07 0.08 0.06 0.04 0.02 0.01
0.03 0.03 0.02 0.02 0.02 0.01 0.01 0.00 0.00 0.01 0.00 0.00 0.01 0.01 0.00 0.00 0.00 0.00 0.00 0.01 0.01 0.02 0.02 0.02 0.02 0.02 0.03 0.03 0.03 0.03 0.03 0.02 0.02 0.01 0.01 0.01 0.01 0.01 0.02 0.02 0.03 0.03 0.04 0.05 0.06 0.06 0.04 0.03 0.02
0.02 0.04 0.03 0.02 0.02 0.01 0.01 0.00 0.00 0.00 0.00 0.00 0.00 0.01 0.01 0.01 0.00 0.01 0.00 0.00 0.01 0.01 0.01 0.02 0.02 0.02 0.03 0.03 0.03 0.03 0.03 0.03 0.02 0.01 0.01 0.01 0.01 0.01 0.02 0.02 0.02 0.03 0.03 0.04 0.04 0.05 0.05 0.03 0.03
0.02 0.03 0.03 0.02 0.01 0.01 0.01 0.00 0.00 0.00 0.00 0.00 0.00 0.01 0.01 0.01 0.01 0.01 0.01 0.01 0.01 0.01 0.01 0.01 0.02 0.02 0.02 0.02 0.02 0.02 0.03 0.03 0.02 0.02 0.01 0.01 0.01 0.01 0.01 0.02 0.02 0.02 0.02 0.03 0.03 0.04 0.04 0.04 0.03
MSLP
1013.50 1014.04 1014.75 1015.51 1016.18 1016.66 1016.88 1016.84 1016.60 1016.25 1015.90 1015.65 1015.53 1015.55 1015.66 1015.77 1015.81 1015.73 1015.51 1015.20 1014.87 1014.61 1014.49 1014.55 1014.82 1015.23 1015.71 1016.20 1016.62 1016.93 1017.15 1017.30 1017.43 1017.59 1017.81 1018.09 1018.43 1018.77 1019.07 1019.30 1019.45 1019.51 1019.51 1019.48 1019.47 1019.49 1019.55 1019.64 1019.75
1014.03 1014.66 1015.41 1016.13 1016.71 1017.04 1017.10 1016.89 1016.49 1016.01 1015.57 1015.26 1015.11 1015.11 1015.22 1015.34 1015.41 1015.37 1015.21 1014.97 1014.71 1014.53 1014.47 1014.59 1014.89 1015.32 1015.81 1016.29 1016.71 1017.03 1017.26 1017.43 1017.59 1017.79 1018.03 1018.34 1018.68 1019.02 1019.32 1019.55 1019.68 1019.73 1019.73 1019.71 1019.69 1019.72 1019.78 1019.89 1020.01
1014.60 1015.26 1015.96 1016.58 1017.00 1017.16 1017.03 1016.67 1016.15 1015.60 1015.13 1014.81 1014.68 1014.71 1014.84 1015.00 1015.10 1015.11 1015.01 1014.84 1014.66 1014.56 1014.59 1014.77 1015.11 1015.56 1016.06 1016.53 1016.94 1017.25 1017.47 1017.64 1017.80 1018.00 1018.24 1018.54 1018.87 1019.19 1019.48 1019.69 1019.82 1019.88 1019.89 1019.88 1019.89 1019.93 1020.02 1020.14 1020.29
1015.20 1015.82 1016.42 1016.87 1017.09 1017.04 1016.74 1016.25 1015.67 1015.11 1014.67 1014.40 1014.34 1014.43 1014.61 1014.80 1014.94 1014.98 1014.92 1014.82 1014.72 1014.70 1014.81 1015.06 1015.45 1015.92 1016.42 1016.88 1017.26 1017.55 1017.75 1017.90 1018.04 1018.21 1018.43 1018.70 1019.00 1019.30 1019.57 1019.77 1019.91 1019.99 1020.02 1020.05 1020.09 1020.17 1020.28 1020.44 1020.61
1015.80 1016.33 1016.77 1017.02 1017.03 1016.80 1016.36 1015.79 1015.20 1014.69 1014.34 1014.18 1014.21 1014.37 1014.60 1014.81 1014.96 1015.01 1014.98 1014.91 1014.87 1014.92 1015.10 1015.40 1015.83 1016.31 1016.80 1017.25 1017.60 1017.86 1018.03 1018.16 1018.27 1018.41 1018.60 1018.84 1019.11 1019.38 1019.63 1019.84 1019.99 1020.10 1020.18 1020.25 1020.34 1020.45 1020.60 1020.77 1020.97
1016.34 1016.76 1017.02 1017.08 1016.91 1016.53 1016.01 1015.44 1014.91 1014.51 1014.30 1014.28 1014.41 1014.64 1014.89 1015.09 1015.21 1015.23 1015.19 1015.13 1015.11 1015.19 1015.40 1015.74 1016.18 1016.66 1017.13 1017.54 1017.87 1018.10 1018.25 1018.36 1018.46 1018.58 1018.75 1018.97 1019.21 1019.47 1019.71 1019.93 1020.11 1020.25 1020.38 1020.50 1020.62 1020.77 1020.94 1021.13 1021.34
1016.79 1017.08 1017.19 1017.10 1016.81 1016.37 1015.85 1015.35 1014.96 1014.73 1014.68 1014.79 1015.02 1015.28 1015.52 1015.67 1015.72 1015.67 1015.56 1015.46 1015.43 1015.50 1015.71 1016.03 1016.44 1016.89 1017.33 1017.70 1017.99 1018.20 1018.35 1018.46 1018.57 1018.70 1018.87 1019.09 1019.33 1019.58 1019.83 1020.06 1020.27 1020.45 1020.61 1020.76 1020.92 1021.10 1021.28 1021.47 1021.67
1017.07 1017.26 1017.27 1017.10 1016.78 1016.36 1015.95 1015.61 1015.41 1015.38 1015.51 1015.75 1016.04 1016.30 1016.48 1016.53 1016.46 1016.30 1016.10 1015.92 1015.82 1015.85 1016.01 1016.28 1016.63 1017.02 1017.39 1017.71 1017.96 1018.16 1018.31 1018.45 1018.59 1018.76 1018.96 1019.20 1019.46 1019.72 1019.98 1020.22 1020.44 1020.65 1020.84 1021.02 1021.20 1021.38 1021.56 1021.74 1021.93
1017.17 1017.30 1017.27 1017.10 1016.84 1016.56 1016.33 1016.22 1016.26 1016.45 1016.76 1017.10 1017.42 1017.64 1017.71 1017.63 1017.41 1017.10 1016.78 1016.50 1016.32 1016.27 1016.35 1016.54 1016.79 1017.07 1017.35 1017.60 1017.81 1017.99 1018.16 1018.34 1018.54 1018.76 1019.02 1019.29 1019.57 1019.85 1020.11 1020.37 1020.60 1020.82 1021.02 1021.22 1021.40 1021.58 1021.75 1021.91 1022.08
1017.11 1017.21 1017.20 1017.11 1017.00 1016.94 1016.97 1017.14 1017.45 1017.87 1018.32 1018.74 1019.04 1019.17 1019.11 1018.87 1018.49 1018.04 1017.59 1017.22 1016.95 1016.80 1016.78 1016.85 1016.98 1017.14 1017.30 1017.46 1017.61 1017.77 1017.95 1018.18 1018.43 1018.72 1019.03 1019.35 1019.65 1019.94 1020.21 1020.46 1020.69 1020.91 1021.12 1021.31 1021.50 1021.67 1021.83 1021.98 1022.13
1016.94 1017.05 1017.12 1017.17 1017.28 1017.48 1017.82 1018.29 1018.87 1019.49 1020.06 1020.51 1020.76 1020.78 1020.57 1020.17 1019.64 1019.06 1018.51 1018.04 1017.69 1017.47 1017.34 1017.29 1017.28 1017.30 1017.33 1017.37 1017.45 1017.58 1017.77 1018.02 1018.32 1018.67 1019.02 1019.36 1019.68 1019.96 1020.22 1020.46 1020.68 1020.89 1021.10 1021.30 1021.48 1021.66 1021.81 1021.95 1022.09
1016.77 1016.91 1017.08 1017.32 1017.67 1018.17 1018.81 1019.58 1020.40 1021.18 1021.83 1022.27 1022.44 1022.34 1021.98 1021.43 1020.77 1020.10 1019.48 1018.96 1018.55 1018.26 1018.04 1017.87 1017.73 1017.60 1017.50 1017.43 1017.42 1017.50 1017.67 1017.93 1018.26 1018.63 1018.99 1019.34 1019.65 1019.92 1020.15 1020.37 1020.57 1020.78 1020.98 1021.19 1021.39 1021.57 1021.73 1021.88 1022.02
1016.72 1016.91 1017.19 1017.61 1018.20 1018.97 1019.90 1020.92 1021.93 1022.83 1023.52 1023.91 1023.99 1023.75 1023.26 1022.59 1021.84 1021.11 1020.45 1019.91 1019.48 1019.14 1018.86 1018.59 1018.33 1018.07 1017.84 1017.66 1017.56 1017.58 1017.72 1017.97 1018.29 1018.64 1019.00 1019.32 1019.59 1019.82 1020.02 1020.20 1020.39 1020.59 1020.80 1021.03 1021.24 1021.45 1021.63 1021.80 1021.95
1016.94 1017.15 1017.53 1018.11 1018.90 1019.90 1021.04 1022.25 1023.39 1024.35 1025.03 1025.36 1025.33 1024.97 1024.36 1023.61 1022.81 1022.05 1021.40 1020.86 1020.43 1020.07 1019.73 1019.39 1019.03 1018.67 1018.33 1018.05 1017.89 1017.85 1017.94 1018.15 1018.44 1018.76 1019.07 1019.34 1019.55 1019.73 1019.88 1020.03 1020.19 1020.39 1020.62 1020.87 1021.12 1021.36 1021.57 1021.76 1021.93
1017.47 1017.70 1018.15 1018.83 1019.77 1020.93 1022.22 1023.53 1024.73 1025.70 1026.33 1026.58 1026.45 1026.00 1025.31 1024.50 1023.68 1022.93 1022.29 1021.77 1021.34 1020.96 1020.59 1020.19 1019.76 1019.32 1018.90 1018.57 1018.35 1018.27 1018.32 1018.49 1018.73 1018.99 1019.24 1019.44 1019.59 1019.70 1019.80 1019.91 1020.06 1020.26 1020.50 1020.78 1021.06 1021.34 1021.58 1021.79 1021.97
1018.32 1018.56 1019.04 1019.79 1020.80 1022.04 1023.39 1024.73 1025.93 1026.85 1027.41 1027.58 1027.37 1026.85 1026.12 1025.30 1024.48 1023.74 1023.12 1022.61 1022.18 1021.77 1021.36 1020.91 1020.43 1019.94 1019.49 1019.13 1018.89 1018.79 1018.83 1018.97 1019.16 1019.37 1019.54 1019.67 1019.74 1019.79 1019.83 1019.91 1020.05 1020.25 1020.51 1020.81 1021.12 1021.42 1021.68 1021.91 1022.09
1019.42 1019.65 1020.14 1020.91 1021.94 1023.18 1024.51 1025.81 1026.95 1027.79 1028.27 1028.37 1028.11 1027.56 1026.83 1026.02 1025.23 1024.51 1023.91 1023.39 1022.93 1022.48 1022.02 1021.52 1021.00 1020.50 1020.04 1019.69 1019.47 1019.39 1019.43 1019.55 1019.72 1019.87 1019.98 1020.04 1020.05 1020.04 1020.04 1020.09 1020.21 1020.41 1020.68 1020.99 1021.31 1021.61 1021.88 1022.10 1022.28
1020.65 1020.88 1021.36 1022.11 1023.11 1024.28 1025.53 1026.73 1027.76 1028.50 1028.90 1028.94 1028.66 1028.13 1027.44 1026.68 1025.94 1025.26 1024.66 1024.11 1023.61 1023.10 1022.57 1022.02 1021.47 1020.96 1020.53 1020.22 1020.05 1020.01 1020.08 1020.21 1020.36 1020.48 1020.55 1020.55 1020.51 1020.45 1020.42 1020.45 1020.56 1020.75 1021.01 1021.31 1021.62 1021.91 1022.16 1022.37 1022.53
1021.91 1022.14 1022.60 1023.31 1024.23 1025.29 1026.40 1027.46 1028.34 1028.96 1029.27 1029.28 1029.02 1028.55 1027.94 1027.28 1026.61 1025.98 1025.39 1024.82 1024.25 1023.67 1023.07 1022.46 1021.88 1021.38 1020.98 1020.72 1020.61 1020.63 1020.74 1020.90 1021.05 1021.16 1021.19 1021.16 1021.08 1021.00 1020.95 1020.96 1021.06 1021.23 1021.48 1021.75 1022.04 1022.29 1022.51 1022.68 1022.81
1023.08 1023.33 1023.78 1024.43 1025.24 1026.16 1027.09 1027.95 1028.66 1029.15 1029.38 1029.38 1029.16 1028.79 1028.31 1027.78 1027.23 1026.67 1026.10 1025.51 1024.89 1024.23 1023.56 1022.90 1022.29 1021.79 1021.43 1021.23 1021.18 1021.26 1021.42 1021.60 1021.76 1021.86 1021.87 1021.82 1021.72 1021.62 1021.56 1021.57 1021.66 1021.82 1022.04 1022.28 1022.52 1022.73 1022.90 1023.02 1023.11
1024.13 1024.43 1024.88 1025.46 1026.15 1026.89 1027.62 1028.25 1028.76 1029.09 1029.23 1029.22 1029.07 1028.82 1028.51 1028.14 1027.74 1027.29 1026.78 1026.20 1025.55 1024.84 1024.11 1023.39 1022.77 1022.27 1021.94 1021.78 1021.78 1021.91 1022.09 1022.29 1022.45 1022.53 1022.53 1022.46 1022.36 1022.26 1022.20 1022.20 1022.29 1022.43 1022.63 1022.83 1023.03 1023.19 1023.30 1023.38 1023.43
1025.07 1025.44 1025.90 1026.43 1027.00 1027.54 1028.03 1028.42 1028.69 1028.84 1028.88 1028.85 1028.77 1028.65 1028.51 1028.33 1028.11 1027.80 1027.39 1026.86 1026.21 1025.49 1024.73 1024.00 1023.36 1022.87 1022.55 1022.42 1022.44 1022.58 1022.77 1022.96 1023.10 1023.15 1023.13 1023.05 1022.94 1022.84 1022.79 1022.80 1022.88 1023.02 1023.19 1023.36 1023.51 1023.63 1023.70 1023.74 1023.76
1025.98 1026.43 1026.92 1027.41 1027.84 1028.19 1028.43 1028.54 1028.56 1028.51 1028.43 1028.35 1028.31 1028.31 1028.34 1028.36 1028.32 1028.18 1027.89 1027.46 1026.87 1026.17 1025.43 1024.70 1024.07 1023.58 1023.28 1023.15 1023.17 1023.29 1023.45 1023.60 1023.70 1023.71 1023.66 1023.55 1023.43 1023.33 1023.29 1023.31 1023.39 1023.52 1023.68 1023.82 1023.94 1024.02 1024.06 1024.07 1024.07
1026.90 1027.46 1028.00 1028.45 1028.77 1028.91 1028.90 1028.74 1028.49 1028.21 1027.98 1027.83 1027.80 1027.88 1028.05 1028.24 1028.38 1028.41 1028.28 1027.96 1027.47 1026.84 1026.15 1025.46 1024.86 1024.39 1024.09 1023.96 1023.95 1024.03 1024.14 1024.23 1024.26 1024.21 1024.11 1023.98 1023.84 1023.74 1023.70 1023.72 1023.81 1023.93 1024.07 1024.21 1024.30 1024.36 1024.39 1024.38 1024.37
1027.89 1028.57 1029.16 1029.59 1029.79 1029.75 1029.50 1029.07 1028.56 1028.06 1027.65 1027.40 1027.34 1027.46 1027.71 1028.03 1028.32 1028.51 1028.52 1028.34 1027.96 1027.44 1026.83 1026.22 1025.67 1025.24 1024.95 1024.80 1024.76 1024.79 1024.83 1024.84 1024.79 1024.68 1024.53 1024.36 1024.20 1024.09 1024.04 1024.06 1024.14 1024.26 1024.39 1024.51 1024.59 1024.64 1024.65 1024.64 1024.63
1028.92 1029.71 1030.36 1030.77 1030.88 1030.68 1030.22 1029.56 1028.81 1028.09 1027.51 1027.14 1027.02 1027.13 1027.42 1027.82 1028.21 1028.50 1028.64 1028.58 1028.32 1027.91 1027.42 1026.89 1026.42 1026.04 1025.78 1025.63 1025.56 1025.53 1025.50 1025.44 1025.32 1025.15 1024.94 1024.73 1024.55 1024.42 1024.36 1024.36 1024.43 1024.53 1024.64 1024.74 1024.81 1024.84 1024.86 1024.85 1024.83
1029.92 1030.82 1031.51 1031.90 1031.93 1031.60 1030.97 1030.12 1029.18 1028.29 1027.56 1027.08 1026.88 1026.95 1027.24 1027.64 1028.08 1028.44 1028.65 1028.68 1028.53 1028.24 1027.85 1027.43 1027.05 1026.73 1026.51 1026.37 1026.29 1026.23 1026.15 1026.03 1025.85 1025.63 1025.39 1025.15 1024.94 1024.78 1024.70 1024.68 1024.71 1024.78 1024.86 1024.92 1024.97 1024.99 1025.00 1024.99 1024.99
1030.79 1031.75 1032.45 1032.81 1032.78 1032.36 1031.61 1030.64 1029.58 1028.58 1027.75 1027.19 1026.92 1026.94 1027.18 1027.56 1027.98 1028.34 1028.59 1028.67 1028.60 1028.39 1028.11 1027.79 1027.50 1027.27 1027.10 1026.99 1026.91 1026.83 1026.73 1026.58 1026.38 1026.13 1025.87 1025.61 1025.38 1025.20 1025.09 1025.03 1025.02 1025.04 1025.07 1025.09 1025.10 1025.10 1025.09 1025.08 1025.07
1031.42 1032.37 1033.04 1033.34 1033.24 1032.75 1031.94 1030.92 1029.83 1028.80 1027.95 1027.36 1027.06 1027.03 1027.22 1027.55 1027.91 1028.24 1028.47 1028.57 1028.53 1028.39 1028.19 1027.96 1027.76 1027.60 1027.50 1027.43 1027.38 1027.32 1027.22 1027.07 1026.87 1026.62 1026.36 1026.10 1025.87 1025.68 1025.53 1025.43 1025.37 1025.32 1025.28 1025.24 1025.21 1025.17 1025.14 1025.11 1025.10
1031.72 1032.59 1033.16 1033.37 1033.18 1032.65 1031.82 1030.82 1029.77 1028.81 1028.01 1027.47 1027.18 1027.14 1027.29 1027.56 1027.86 1028.13 1028.31 1028.39 1028.36 1028.26 1028.11 1027.96 1027.84 1027.76 1027.71 1027.70 1027.69 1027.65 1027.58 1027.45 1027.27 1027.05 1026.82 1026.58 1026.36 1026.16 1025.99 1025.85 1025.73 1025.61 1025.51 1025.40 1025.30 1025.21 1025.14 1025.10 1025.08
Thickness
5712 5714 5714 5707 5689 5670 5673 5685 5693 5697 5701 5705 5707 5706 5704 5702 5700 5701 5709 5714 5715 5715 5715 5715 5714 5713 5712 5711 5710 5709 5708 5708 5708 5708 5708 5708 5707 5707 5707 5707 5707 5706 5706 5706 5706 5706 5706 5706 5706
5707 5709 5704 5691 5671 5660 5670 5684 5689 5695 5701 5702 5702 5702 5700 5699 5702 5703 5706 5709 5711 5711 5711 5711 5710 5709 5708 5707 5706 5705 5705 5704 5704 5704 5704 5704 5703 5703 5703 5702 5702 5702 5701 5701 5702 5702 5702 5702 5702
5703 5702 5688 5673 5662 5661 5674 5685 5688 5693 5697 5698 5695 5696 5696 5695 5698 5700 5703 5705 5706 5706 5706 5707 5706 5705 5704 5703 5702 5701 5700 5700 5700 5700 5700 5699 5699 5699 5698 5698 5697 5697 5697 5697 5696 5697 5697 5697 5697
5694 5686 5675 5663 5661 5667 5675 5682 5684 5687 5691 5692 5691 5688 5690 5692 5694 5696 5699 5700 5701 5701 5701 5701 5701 5700 5699 5698 5697 5697 5696 5695 5695 5695 5695 5695 5694 5694 5693 5693 5692 5692 5692 5692 5692 5692 5692 5692 5692
5683 5671 5659 5650 5657 5665 5671 5676 5680 5680 5682 5684 5685 5683 5683 5686 5690 5692 5693 5694 5694 5694 5695 5695 5695 5695 5694 5693 5692 5692 5691 5690 5690 5689 5689 5690 5689 5689 5688 5687 5687 5687 5687 5687 5687 5687 5687 5687 5687
5666 5658 5645 5643 5652 5661 5666 5670 5674 5672 5673 5676 5676 5676 5677 5680 5683 5685 5686 5687 5688 5688 5688 5688 5688 5688 5688 5687 5687 5686 5686 5685 5685 5684 5684 5684 5683 5683 5682 5682 5682 5682 5682 5681 5681 5681 5681 5681 5681
5656 5647 5641 5644 5646 5653 5662 5664 5664 5664 5666 5667 5670 5668 5670 5673 5676 5678 5678 5679 5680 5680 5680 5681 5681 5680 5680 5681 5680 5680 5680 5679 5678 5678 5678 5677 5677 5676 5676 5675 5675 5675 5675 5675 5675 5675 5675 5675 5675
5653 5643 5638 5636 5641 5648 5654 5657 5659 5658 5659 5662 5664 5661 5662 5667 5669 5670 5670 5671 5671 5672 5672 5672 5673 5673 5673 5673 5674 5673 5673 5673 5672 5671 5671 5671 5670 5669 5669 5668 5668 5668 5668 5669 5669 5669 5669 5669 5669
5650 5633 5629 5634 5637 5643 5647 5648 5650 5652 5652 5654 5655 5656 5658 5660 5661 5662 5662 5661 5662 5663 5664 5665 5665 5666 5666 5666 5667 5666 5666 5666 5666 5665 5664 5664 5663 5662 5662 5661 5661 5661 5662 5662 5663 5663 5663 5662 5662
5636 5624 5631 5638 5638 5638 5639 5640 5640 5642 5642 5643 5646 5648 5651 5652 5653 5654 5653 5653 5654 5654 5656 5657 5658 5658 5658 5659 5659 5659 5659 5659 5659 5658 5658 5657 5656 5656 5654 5653 5653 5654 5655 5656 5656 5656 5656 5656 5656
5629 5624 5629 5632 5634 5634 5633 5632 5633 5633 5633 5635 5637 5639 5641 5643 5644 5645 5646 5646 5647 5648 5649 5650 5650 5651 5651 5651 5651 5651 5651 5652 5652 5651 5651 5650 5650 5649 5648 5647 5647 5648 5648 5649 5649 5649 5650 5649 5649
5620 5621 5624 5625 5628 5627 5626 5625 5624 5624 5627 5631 5632 5633 5635 5635 5636 5637 5638 5639 5639 5639 5641 5642 5643 5643 5643 5644 5644 5643 5644 5644 5644 5644 5644 5644 5643 5642 5641 5641 5641 5641 5642 5642 5642 5642 5642 5642 5642
5612 5613 5616 5617 5618 5618 5618 5616 5616 5616 5620 5622 5624 5625 5627 5628 5628 5629 5630 5631 5632 5632 5633 5634 5635 5636 5636 5636 5636 5636 5636 5636 5637 5637 5637 5637 5636 5636 5635 5634 5634 5635 5635 5635 5635 5635 5635 5635 5635
5605 5605 5606 5608 5610 5611 5610 5609 5609 5611 5612 5613 5615 5616 5618 5619 5621 5621 5622 5623 5624 5625 5626 5627 5627 5628 5628 5628 5628 5629 5629 5629 5629 5629 5630 5629 5629 5629 5628 5628 5627 5627 5628 5628 5628 5628 5628 5627 5627
5599 5597 5598 5599 5601 5602 5603 5601 5602 5604 5603 5604 5606 5608 5609 5610 5612 5612 5614 5615 5617 5618 5619 5619 5620 5620 5620 5620 5620 5620 5620 5620 5620 5620 5621 5621 5621 5622 5621 5621 5620 5620 5620 5620 5620 5620 5620 5620 5619
5588 5584 5583 5589 5590 5592 5591 5591 5598 5594 5594 5594 5596 5598 5600 5601 5603 5604 5605 5607 5608 5609 5611 5612 5613 5612 5613 5613 5612 5612 5611 5611 5612 5612 5612 5612 5613 5614 5614 5613 5612 5613 5612 5612 5612 5612 5611 5611 5610
5569 5567 5571 5576 5579 5579 5579 5581 5589 5585 5585 5585 5586 5588 5590 5593 5595 5596 5597 5598 5600 5601 5602 5603 5604 5604 5604 5604 5603 5603 5603 5603 5603 5603 5603 5603 5605 5606 5606 5605 5604 5604 5604 5604 5604 5603 5603 5602 5601
5559 5557 5559 5562 5567 5567 5566 5571 5577 5576 5575 5575 5576 5578 5581 5584 5587 5588 5588 5589 5591 5591 5593 5594 5594 5594 5595 5595 5594 5594 5594 5594 5594 5594 5594 5595 5596 5597 5597 5596 5596 5596 5595 5595 5595 5594 5594 5593 5592
5553 5550 5548 5552 5557 5556 5557 5562 5569 5568 5567 5567 5567 5569 5572 5575 5577 5578 5579 5579 5581 5582 5583 5584 5584 5584 5585 5585 5585 5584 5585 5584 5585 5585 5586 5587 5587 5587 5588 5588 5587 5587 5586 5586 5585 5585 5584 5582 5582
5544 5540 5538 5542 5547 5546 5547 5554 5563 5562 5561 5563 5563 5563 5565 5566 5567 5568 5569 5569 5570 5571 5572 5574 5574 5575 5576 5577 5577 5576 5576 5576 5576 5577 5577 5579 5579 5579 5580 5580 5578 5578 5578 5577 5577 5576 5574 5572 5571
5534 5531 5531 5531 5534 5535 5535 5546 5557 5560 5557 5557 5558 5559 5558 5559 5558 5559 5559 5559 5560 5560 5562 5564 5565 5565 5566 5567 5568 5567 5567 5567 5567 5567 5568 5569 5570 5570 5571 5570 5569 5569 5568 5568 5567 5566 5565 5563 5560
5525 5528 5525 5523 5518 5514 5522 5521 5549 5550 5549 5550 5551 5549 5548 5549 5550 5551 5551 5551 5551 5551 5552 5553 5555 5556 5557 5558 5559 5558 5558 5557 5557 5558 5558 5559 5560 5561 5562 5561 5560 5560 5559 5558 5557 5557 5556 5554 5551
5518 5517 5515 5512 5506 5501 5506 5504 5533 5538 5542 5546 5545 5543 5542 5541 5541 5542 5542 5542 5542 5542 5542 5543 5544 5545 5547 5548 5549 5549 5549 5548 5548 5548 5549 5549 5550 5551 5551 5551 5550 5550 5549 5548 5548 5547 5546 5544 5543
5509 5505 5499 5489 5487 5489 5497 5496 5519 5525 5537 5542 5541 5537 5534 5532 5531 5532 5532 5532 5532 5531 5532 5532 5534 5534 5535 5537 5537 5538 5538 5537 5537 5538 5538 5539 5539 5540 5540 5540 5540 5540 5539 5538 5538 5537 5536 5535 5533
5502 5491 5476 5474 5464 5479 5490 5490 5514 5528 5530 5531 5531 5528 5524 5522 5522 5522 5522 5522 5522 5521 5522 5522 5523 5524 5524 5525 5526 5527 5527 5527 5528 5528 5528 5528 5529 5529 5530 5530 5529 5530 5529 5529 5528 5527 5526 5524 5523
5493 5491 5476 5472 5468 5474 5480 5483 5510 5520 5519 5518 5518 5517 5514 5513 5512 5513 5513 5512 5512 5511 5511 5512 5513 5513 5514 5514 5515 5515 5516 5516 5517 5517 5518 5518 5519 5519 5520 5520 5520 5519 5519 5518 5517 5516 5515 5514 5512
5484 5477 5477 5462 5451 5455 5473 5482 5499 5511 5511 5510 5508 5507 5504 5503 5502 5503 5502 5502 5502 5501 5501 5501 5501 5501 5502 5502 5503 5503 5504 5505 5506 5506 5507 5507 5508 5509 5509 5509 5509 5508 5507 5507 5506 5504 5503 5502 5501
5479 5470 5457 5453 5453 5458 5469 5474 5492 5503 5503 5500 5497 5495 5494 5493 5492 5492 5492 5491 5491 5491 5490 5490 5490 5490 5490 5490 5491 5492 5493 5494 5495 5495 5495 5496 5497 5497 5498 5498 5498 5497 5496 5496 5494 5493 5493 5492 5490
5464 5460 5454 5443 5443 5446 5455 5481 5496 5495 5495 5491 5487 5485 5483 5483 5482 5481 5480 5479 5479 5478 5478 5479 5478 5478 5478 5479 5479 5480 5481 5482 5483 5484 5484 5485 5485 5485 5486 5486 5486 5485 5485 5484 5483 5482 5481 5481 5479
5457 5456 5448 5445 5436 5428 5431 5469 5491 5484 5482 5480 5476 5474 5473 5472 5471 5469 5468 5467 5466 5467 5467 5467 5466 5466 5467 5467 5468 5469 5469 5470 5471 5472 5472 5473 5474 5474 5474 5474 5474 5474 5473 5473 5473 5472 5471 5470 5469